[[{"header":{"parameterUnit":"m.s-1","parameterCategory":1,"la1":30.2991,"la2":30.254,"lo1":-89.0895,"lo2":-89.0444,"dy":0.0017,"dx":0.0017,"nx":28,"ny":28,"refTime":"2025-04-09T03:00:00:Z","depth":0,"parameterNumber":2,"parameterNumberName":"U-component_of_WINDS"},"data":[0,0,0,0,0,0,0,0,0,0,0,0,0,0,0,0,0,0,0,0,0,0,0,0,0,0,0,0,0,0,0,0,0,0,0,0,0,0,0,0,0,0,0,0,0,0,0,0,0,0,0,0,0,0,0,0,0,0,2.8374,2.8375,0,2.848,2.8481,2.8482,2.8449,2.8447,2.8444,2.8442,2.8549,2.8553,2.8558,0,0,0,0,0,0,0,0,0,0,0,0,0,2.8143,2.8148,2.8374,2.8375,2.8377,2.8479,2.8481,2.8482,2.8449,2.8446,2.8444,2.8441,2.8547,2.8553,2.8559,0,0,0,0,0,0,0,0,0,0,0,0,0,2.8245,2.8149,2.8374,2.8373,2.8374,2.8479,2.8481,2.8483,2.845,2.8446,2.8443,2.844,2.8545,2.8552,2.8559,2.8672,0,0,2.8582,2.8585,0,0,0,0,0,0,0,0,2.824,2.8254,2.8372,2.8373,2.8374,2.8448,2.8438,2.8546,2.8451,2.8421,2.8442,2.8438,2.8518,2.8527,2.8554,2.8677,2.8682,2.8583,2.8587,2.859,2.8592,0,0,0,0,0,0,0,2.8233,2.8249,2.8416,2.8373,2.8375,2.8367,2.8377,2.8459,2.8487,2.8423,2.8421,2.8434,2.8518,2.8547,2.8556,2.8683,2.8582,2.8589,2.8594,2.8596,2.8904,2.8907,0,0,0,0,0,0,2.8225,2.8244,2.8412,2.8419,2.8297,2.8373,2.8386,2.8427,2.8486,2.8491,2.8437,2.8432,2.8536,2.8548,2.856,2.8695,2.859,2.8597,2.8601,2.89,2.8905,2.8909,0,0,0,0,0,0,2.822,2.824,2.8408,2.8331,2.8352,2.8381,2.8428,2.8431,2.8461,2.8496,2.8501,2.8462,2.8534,2.855,2.8645,2.8699,2.86,2.8607,2.8896,2.8902,2.8907,2.8967,0,0,0,0,0,0,2.8214,2.8239,2.8282,2.8332,2.8356,2.8492,2.8432,2.8436,2.8474,2.8469,2.8521,2.8526,2.8533,2.8634,2.8652,2.8707,2.8613,2.8891,2.8898,2.8905,2.8961,2.8974,2.8986,0,0,0,0,0,2.8205,2.8294,2.8284,2.8305,2.8411,2.8495,2.8508,2.8514,2.8478,2.8522,2.8545,2.8524,2.869,2.8644,2.8664,2.8722,2.8888,2.8896,2.8904,2.8955,2.8972,2.8986,0,0,0,0,0,0,2.8249,2.8301,2.829,2.8398,2.8443,2.8489,2.8544,2.8532,2.8587,2.8579,2.8584,2.8596,2.8694,2.8717,2.8665,2.8834,2.8783,2.8796,2.8815,2.8831,2.8844,2.8835,2.8619,0,0,0,0,0,2.8272,2.8336,2.8378,2.8469,2.8492,2.8514,2.8551,2.8552,2.8598,2.8616,2.8646,2.8691,2.8753,2.8793,2.8852,2.8964,2.8975,2.9014,2.9027,2.9037,2.9048,2.9109,2.9126,2.8936,2.8936,2.8936,0,0,2.8318,2.8354,2.8395,2.8479,2.8513,2.8579,2.853,2.8602,2.8651,2.8627,2.8718,2.8742,2.8792,2.8896,2.8943,2.8919,2.9103,2.9048,2.9056,2.9061,2.9119,2.9137,2.9153,2.8942,2.8941,2.894,0,0,2.8437,2.8471,2.8551,2.8586,2.8639,2.8654,2.8673,2.8722,2.8737,2.8829,2.8812,2.8871,2.8977,2.9014,2.9046,2.918,2.9163,2.9199,2.9265,2.9324,2.9339,2.9353,2.94,2.9417,2.921,2.921,2.921,0,2.8488,2.8587,2.8593,2.8667,2.8704,2.8686,2.8767,2.8801,2.887,2.8896,2.8868,2.9002,2.9035,2.9147,2.918,2.9207,2.9229,2.9193,2.9337,2.935,2.9363,2.9408,2.9425,2.9214,2.9214,2.9213,2.9213,0,2.8647,2.8717,2.8775,2.8843,2.8887,2.8963,2.8981,2.9024,2.9022,2.904,2.9134,2.9172,2.9239,2.9266,2.9264,2.9378,2.9361,2.9335,2.9284,2.9385,2.9427,2.9444,2.922,2.9218,2.9217,2.9216,0,0,2.8795,2.8866,2.8887,2.8918,2.8976,2.9029,2.9105,2.9171,2.9208,2.9257,2.9321,2.9412,2.9389,2.9426,2.9428,2.948,2.9583,2.9448,2.9449,2.9471,2.971,2.9729,2.9749,2.9573,2.9576,2.9579,2.9706,0,2.8918,2.9052,2.906,2.9181,2.9245,2.923,2.9296,2.9338,2.9357,2.9414,2.9434,2.9499,2.9463,2.9485,2.9536,2.9559,2.9631,2.9551,2.9631,2.9634,2.9618,2.9771,2.979,2.9908,2.9722,2.9725,2.9727,0,2.9079,2.9133,2.9261,2.931,2.9337,2.9396,2.9457,2.9512,2.956,2.957,2.9612,2.9607,2.9684,2.9632,2.9739,2.9684,2.9718,2.9734,2.9739,2.9746,2.9686,2.9781,2.9946,2.9964,2.9754,2.9751,2.975,0,2.9173,2.9278,2.9368,2.9395,2.9454,2.9496,2.9523,2.9568,2.9607,2.966,2.9686,2.9747,2.9781,2.9829,2.984,2.9801,2.9947,2.9895,2.9957,2.9957,2.9987,2.9985,3.0159,3.0011,3.0011,3.001,3.001,0,2.9309,2.9387,2.9411,2.9467,2.9554,2.9563,2.9649,2.9673,2.9713,2.9772,2.9763,2.9819,2.9831,2.989,2.99,2.9986,3.0002,3.0012,3.0013,3.0012,3.0011,3.0033,3.0025,3.0015,3.0014,3.0013,3.0012,0,2.9428,2.9448,2.9545,2.9593,2.9607,2.967,2.9711,2.9764,2.9782,2.9857,2.9875,2.9903,2.9972,2.9988,3.007,3.0076,3.0178,3.0173,3.0162,3.0162,3.0222,3.0216,3.0416,3.0442,3.0278,3.0279,3.028,0,2.9513,2.9573,2.9628,2.9668,2.9696,2.976,2.98,2.9811,2.9853,2.9912,2.9958,3.0026,3.008,3.019,3.0217,3.0279,3.0274,3.034,3.0283,3.028,3.0274,3.0269,3.0275,3.035,3.0352,3.0353,3.0354,0,2.9661,2.9668,2.9726,2.9788,2.9837,2.9886,2.9933,2.9966,2.9983,3.0031,3.0101,3.0143,3.0227,3.0293,3.0356,3.0383,3.0372,3.0373,3.039,3.0388,3.038,3.0384,3.0191,3.0367,3.0366,3.0365,3.0364,3.0364,2.9765,2.9818,2.9865,2.993,2.9967,3.0012,3.0064,3.0089,3.0147,3.0216,3.0219,3.0295,3.0342,3.0425,3.0456,3.0515,3.0495,3.052,3.0526,3.0532,3.0537,3.0372,3.0527,3.0526,3.0526,3.0526,3.0525,0,2.9912,2.9942,3.0002,3.0068,3.012,3.0106,3.0158,3.0201,3.0268,3.0313,3.0367,3.0447,3.0512,3.0545,3.0609,3.065,3.0647,3.0667,3.0663,3.0669,3.0552,3.053,3.0669,3.0669,3.0668,3.0668,3.0668,3.0668,2.9994,3.0083,3.0095,3.0202,3.0231,3.0306,3.0336,3.0377,3.0413,3.0503,3.0557,3.0578,3.0618,3.0685,3.0744,3.0752,3.0776,3.0798,3.0803,3.0692,3.0678,3.0664,3.0643,3.0803,3.0804,3.0916,3.0917,3.0918]},{"header":{"parameterUnit":"m.s-1","parameterCategory":1,"la1":30.2991,"la2":30.254,"lo1":-89.0895,"lo2":-89.0444,"dy":0.0017,"dx":0.0017,"nx":28,"ny":28,"refTime":"2025-04-09T03:00:00:Z","depth":0,"parameterNumber":3,"parameterNumberName":"V-component_of_WINDS"},"data":[0,0,0,0,0,0,0,0,0,0,0,0,0,0,0,0,0,0,0,0,0,0,0,0,0,0,0,0,0,0,0,0,0,0,0,0,0,0,0,0,0,0,0,0,0,0,0,0,0,0,0,0,0,0,0,0,0,0,-2.9954,-2.9956,0,-3.0133,-3.0135,-3.0137,-3.0143,-3.014,-3.0138,-3.0136,-3.0318,-3.0325,-3.0332,0,0,0,0,0,0,0,0,0,0,0,0,0,-2.9617,-2.9623,-2.9954,-2.9956,-2.9959,-3.0133,-3.0135,-3.0138,-3.0143,-3.014,-3.0138,-3.0135,-3.0316,-3.0324,-3.0332,0,0,0,0,0,0,0,0,0,0,0,0,0,-2.9776,-2.9625,-2.9954,-2.9982,-2.9987,-3.0132,-3.0135,-3.0138,-3.0143,-3.014,-3.0137,-3.0134,-3.0313,-3.0323,-3.0334,-3.0463,0,0,-3.0365,-3.037,0,0,0,0,0,0,0,0,-2.9767,-2.9789,-2.9976,-2.9981,-2.9986,-3.0112,-3.0083,-3.0247,-3.0144,-3.0084,-3.0136,-3.0132,-3.0252,-3.0267,-3.0308,-3.0471,-3.0479,-3.0366,-3.0372,-3.0377,-3.038,0,0,0,0,0,0,0,-2.9756,-2.9781,-3.0025,-2.9978,-2.9985,-2.9986,-3.0005,-3.0114,-3.0184,-3.0089,-3.009,-3.0111,-3.0254,-3.0298,-3.0312,-3.0482,-3.0366,-3.0375,-3.0381,-3.0385,-3.0762,-3.0765,0,0,0,0,0,0,-2.974,-2.9772,-3.0019,-3.003,-2.9866,-2.9995,-3.0016,-3.0075,-3.0183,-3.0196,-3.0113,-3.011,-3.0282,-3.03,-3.0319,-3.0478,-3.0377,-3.0386,-3.0392,-3.0758,-3.0762,-3.0766,0,0,0,0,0,0,-2.9733,-2.9762,-3.0012,-2.9902,-2.9934,-3.0004,-3.007,-3.008,-3.0124,-3.0202,-3.0214,-3.0145,-3.028,-3.0304,-3.0427,-3.0485,-3.0391,-3.04,-3.0753,-3.0759,-3.0764,-3.0797,0,0,0,0,0,0,-2.9723,-2.9759,-2.9809,-2.9903,-2.9939,-3.0118,-3.0074,-3.0086,-3.0142,-3.014,-3.0235,-3.0248,-3.028,-3.0412,-3.0438,-3.0497,-3.0408,-3.0748,-3.0756,-3.0763,-3.0791,-3.0803,-3.0814,0,0,0,0,0,-2.9711,-2.981,-2.9811,-2.9841,-3.0003,-3.0121,-3.0142,-3.0177,-3.0146,-3.0197,-3.0247,-3.0245,-3.0474,-3.0425,-3.0453,-3.0517,-3.0745,-3.0754,-3.0762,-3.0786,-3.0801,-3.0813,0,0,0,0,0,0,-2.9721,-2.9823,-2.9825,-2.9958,-3.0031,-3.0121,-3.0186,-3.0191,-3.0274,-3.0268,-3.0308,-3.0329,-3.0452,-3.0497,-3.0439,-3.0648,-3.0606,-3.0621,-3.0615,-3.0629,-3.064,-3.0627,-3.0417,0,0,0,0,0,-2.9738,-2.9826,-2.991,-3.0019,-3.0056,-3.0115,-3.0168,-3.0189,-3.0265,-3.0296,-3.0355,-3.0429,-3.0519,-3.0576,-3.0663,-3.0798,-3.0819,-3.0856,-3.0867,-3.0876,-3.0888,-3.0965,-3.0982,-3.0795,-3.0794,-3.0794,0,0,-2.9776,-2.9842,-2.9895,-3.0023,-3.0082,-3.0172,-3.0141,-3.0237,-3.0304,-3.031,-3.0431,-3.0477,-3.0562,-3.0693,-3.0753,-3.0734,-3.0945,-3.0887,-3.0893,-3.0901,-3.0975,-3.0993,-3.1009,-3.08,-3.0799,-3.0798,0,0,-2.989,-2.9949,-3.0047,-3.0107,-3.0196,-3.0235,-3.0259,-3.035,-3.0381,-3.0502,-3.0509,-3.059,-3.0742,-3.0803,-3.0854,-3.0994,-3.0995,-3.1021,-3.1079,-3.1153,-3.1167,-3.1181,-3.1231,-3.1249,-3.1033,-3.1033,-3.1033,0,-2.9924,-3.006,-3.0096,-3.0193,-3.025,-3.0261,-3.0361,-3.0417,-3.053,-3.0569,-3.0546,-3.0739,-3.0797,-3.0943,-3.0977,-3.1017,-3.1046,-3.101,-3.1162,-3.1176,-3.1189,-3.1238,-3.1256,-3.1035,-3.1035,-3.1035,-3.1034,0,-3.0099,-3.0193,-3.0261,-3.0371,-3.0436,-3.0533,-3.0585,-3.0646,-3.0662,-3.0703,-3.0827,-3.0898,-3.0999,-3.1035,-3.1051,-3.1184,-3.1169,-3.1154,-3.1112,-3.1209,-3.1255,-3.1274,-3.1039,-3.1038,-3.1037,-3.1037,0,0,-3.0223,-3.0353,-3.0378,-3.0428,-3.0529,-3.0602,-3.0701,-3.0801,-3.0853,-3.0931,-3.1015,-3.1145,-3.1132,-3.119,-3.1213,-3.1278,-3.1385,-3.1255,-3.1258,-3.1277,-3.1536,-3.1547,-3.1568,-3.1386,-3.139,-3.1393,-3.1529,0,-3.0348,-3.0524,-3.056,-3.0713,-3.0801,-3.0813,-3.09,-3.0971,-3.1013,-3.1093,-3.1139,-3.1231,-3.1207,-3.1242,-3.1307,-3.1358,-3.1437,-3.1349,-3.1465,-3.1469,-3.1443,-3.1592,-3.1604,-3.1729,-3.1547,-3.155,-3.1553,0,-3.0517,-3.0601,-3.0762,-3.0853,-3.0891,-3.0967,-3.1063,-3.114,-3.1221,-3.1247,-3.1313,-3.133,-3.1433,-3.1387,-3.1531,-3.1469,-3.1519,-3.1552,-3.1558,-3.157,-3.1517,-3.1609,-3.177,-3.1789,-3.1581,-3.1579,-3.1577,0,-3.0592,-3.0745,-3.0861,-3.0904,-3.1013,-3.1067,-3.1114,-3.1193,-3.1251,-3.1334,-3.1372,-3.1466,-3.1518,-3.1591,-3.1632,-3.1595,-3.1773,-3.173,-3.1798,-3.1797,-3.1835,-3.1832,-3.2007,-3.1867,-3.1867,-3.1866,-3.1866,0,-3.0729,-3.0827,-3.0897,-3.0968,-3.108,-3.1121,-3.1229,-3.1277,-3.1347,-3.1428,-3.1445,-3.1521,-3.1571,-3.1655,-3.1688,-3.1803,-3.1826,-3.185,-3.1858,-3.1849,-3.1846,-3.1882,-3.1874,-3.1871,-3.187,-3.1869,-3.1868,0,-3.0831,-3.0882,-3.101,-3.1102,-3.1128,-3.1206,-3.1285,-3.1356,-3.1398,-3.1501,-3.1528,-3.1594,-3.1694,-3.1743,-3.1866,-3.1888,-3.2018,-3.202,-3.1991,-3.1994,-3.206,-3.2053,-3.2264,-3.2294,-3.2133,-3.2135,-3.2136,0,-3.0914,-3.0991,-3.1092,-3.1148,-3.1197,-3.1287,-3.1347,-3.1391,-3.1452,-3.1552,-3.1611,-3.1711,-3.1794,-3.1952,-3.2011,-3.2106,-3.2111,-3.2178,-3.2125,-3.2114,-3.2113,-3.2108,-3.2116,-3.2187,-3.2189,-3.219,-3.2191,0,-3.1058,-3.1079,-3.1165,-3.1261,-3.1332,-3.1409,-3.1485,-3.153,-3.1586,-3.1655,-3.1757,-3.1821,-3.1948,-3.2047,-3.2147,-3.2196,-3.2204,-3.2208,-3.2229,-3.222,-3.2201,-3.2213,-3.2017,-3.2203,-3.2201,-3.2201,-3.22,-3.22,-3.1154,-3.1223,-3.1305,-3.1401,-3.1463,-3.1533,-3.1605,-3.1657,-3.1743,-3.185,-3.187,-3.1979,-3.206,-3.2195,-3.2247,-3.2333,-3.2318,-3.2348,-3.2356,-3.2363,-3.2367,-3.2187,-3.2351,-3.2351,-3.2351,-3.235,-3.235,0,-3.1298,-3.1352,-3.144,-3.1546,-3.1622,-3.1623,-3.1707,-3.1771,-3.1866,-3.1941,-3.2023,-3.2141,-3.2238,-3.2306,-3.2405,-3.2461,-3.2467,-3.2485,-3.2482,-3.2493,-3.2374,-3.2346,-3.2479,-3.2479,-3.2479,-3.2479,-3.2479,-3.2479,-3.1382,-3.1499,-3.1531,-3.168,-3.1733,-3.184,-3.1888,-3.1954,-3.2015,-3.2146,-3.2227,-3.2271,-3.2344,-3.2449,-3.2538,-3.2556,-3.2592,-3.261,-3.2628,-3.2515,-3.2501,-3.2488,-3.2463,-3.2618,-3.2618,-3.274,-3.2741,-3.2742]}]]